Probability
4 3 1 1 1 0 0 0 0 1 1 1 0 0 0 0 0 0 1 1 2 2 2 3 5 6 5 4 4 5 5 5 5 7 8 9 9 8 6 4 4 4 3 4 5 4 5 7 8
3 2 2 2 1 1 0 0 1 2 2 2 1 0 0 0 0 0 1 1 2 2 1 2 5 7 5 4 5 6 6 6 7 8 9 11 11 9 7 6 6 6 6 5 4 5 5 6 7
3 3 3 3 2 1 0 0 1 3 3 2 1 0 0 0 0 1 1 2 3 2 1 2 5 6 4 3 4 6 7 8 9 9 10 11 11 9 8 7 8 8 8 6 4 3 5 6 6
4 4 4 3 3 2 1 1 2 3 3 2 1 0 0 0 0 1 1 1 2 1 0 1 4 4 2 2 4 6 8 9 9 9 9 10 9 8 6 7 7 7 6 5 4 3 3 4 5
5 5 4 4 3 2 1 1 2 3 3 2 1 0 0 0 0 1 1 1 0 0 0 2 3 3 3 4 6 6 7 7 7 7 8 9 8 6 5 5 6 4 2 2 4 3 2 2 3
5 4 4 3 3 1 1 1 2 3 3 3 1 0 0 0 1 1 1 0 0 1 2 2 3 4 4 6 6 6 6 6 6 5 6 7 7 5 4 4 4 2 0 1 2 3 2 1 2
5 4 3 3 2 1 0 1 2 3 4 4 2 0 0 0 1 2 2 0 1 2 3 3 3 4 4 5 6 7 7 7 6 5 5 6 7 5 3 2 1 1 1 1 3 3 2 1 2
5 4 3 3 2 0 0 0 1 3 4 4 2 1 0 1 2 3 3 1 1 2 3 3 3 3 3 4 6 7 8 7 7 6 6 7 7 6 3 1 1 2 2 3 4 4 2 2 3
4 3 3 3 2 1 1 1 1 2 3 3 2 1 1 2 3 3 3 2 2 2 3 3 3 2 2 3 5 6 7 7 7 7 7 7 6 4 3 2 2 3 3 4 5 5 3 2 2
3 3 3 3 3 3 3 2 1 2 2 2 1 1 1 3 3 3 3 3 2 1 1 2 3 3 2 2 3 4 5 5 5 6 6 5 4 3 3 4 4 3 2 3 5 5 4 2 1
1 2 3 3 4 4 3 2 1 2 3 1 1 1 2 2 2 3 3 3 2 1 0 1 2 3 3 1 1 1 2 2 3 4 4 4 3 3 3 4 3 2 1 2 3 4 3 2 1
0 1 2 3 3 3 2 1 1 2 3 2 1 2 2 2 1 2 3 3 3 1 1 1 2 3 3 1 0 1 1 2 3 3 3 3 3 3 3 3 2 0 0 1 2 2 1 1 0
0 0 1 2 2 2 1 0 0 1 2 1 1 2 2 2 2 3 3 3 3 3 3 3 4 3 2 1 1 2 3 3 3 3 3 3 3 3 3 2 1 0 0 1 1 1 0 0 0
0 0 1 1 1 1 0 0 0 0 1 1 1 2 3 3 4 4 4 3 4 5 6 6 5 4 3 2 2 3 3 3 3 3 3 3 3 3 3 1 0 0 0 0 0 0 0 0 0
0 0 0 0 0 0 0 0 0 0 1 1 2 3 3 3 4 5 5 4 4 6 7 8 7 6 5 5 4 3 3 3 4 3 3 2 2 3 3 1 0 0 0 0 0 0 0 0 0
0 0 0 0 0 0 0 0 0 1 2 3 3 4 3 2 3 5 5 5 6 7 8 9 9 7 7 6 5 4 3 4 4 4 3 3 3 3 3 2 1 0 0 0 1 1 1 0 0
0 0 0 0 0 0 0 0 0 1 3 4 3 3 2 2 1 2 4 7 9 10 9 9 9 8 6 5 4 3 3 4 4 4 3 3 3 3 3 2 1 0 0 1 2 2 2 1 1
0 0 0 0 0 0 0 0 1 2 4 5 4 2 1 1 1 2 5 8 10 11 10 10 9 7 6 4 2 1 1 2 3 3 3 3 3 3 3 2 1 0 0 1 3 3 3 3 2
0 0 0 0 0 0 1 1 2 3 4 6 6 3 1 1 3 5 7 9 11 10 10 10 9 8 6 3 1 0 0 1 2 2 3 3 3 3 3 2 1 0 1 2 3 3 3 4 4
0 0 0 0 0 1 2 3 3 3 4 5 6 5 4 4 6 8 10 11 10 9 8 8 8 8 6 4 1 0 0 0 0 1 2 2 1 1 2 2 1 0 1 2 3 3 4 5 6
0 0 0 0 0 1 2 2 2 2 3 4 5 6 6 7 9 11 12 12 11 8 7 7 6 5 4 3 2 1 1 1 0 0 1 1 0 0 1 1 0 0 1 2 3 4 5 6 6
0 0 0 0 0 0 1 1 1 1 3 4 4 5 6 8 11 12 12 12 11 8 6 5 4 3 2 2 3 3 2 2 1 1 0 0 0 0 1 1 0 0 1 2 3 5 6 6 6
0 0 0 0 0 0 0 0 0 1 3 3 3 6 7 9 10 11 11 11 9 6 5 4 3 3 2 2 3 3 3 3 3 2 1 1 1 0 1 1 0 0 1 3 5 6 6 7 7
0 0 0 0 0 0 0 0 0 1 2 2 4 6 8 9 10 10 10 10 8 6 5 4 4 3 3 3 3 4 4 3 3 3 3 2 2 1 1 0 0 0 1 4 5 6 7 8 9
0 0 0 0 0 0 0 0 0 0 0 1 4 6 8 9 10 9 8 8 8 8 7 6 5 4 4 4 4 5 5 4 3 3 3 3 3 3 2 1 1 1 1 2 4 5 6 7 8
0 0 0 0 0 0 0 0 0 1 1 2 5 7 8 9 9 7 7 7 8 9 9 7 6 5 6 6 6 6 4 3 3 3 3 4 4 4 3 3 2 1 1 2 2 3 3 3 3
0 0 0 0 0 0 0 0 1 2 3 4 8 10 10 8 7 8 9 9 9 9 9 8 7 7 6 6 6 5 4 4 4 4 4 4 4 4 3 3 3 3 2 2 2 2 1 0 0
0 0 0 0 0 0 0 1 2 3 4 7 10 12 10 6 4 6 9 12 12 10 10 9 9 7 6 5 6 6 6 6 5 4 4 4 3 3 3 3 3 3 3 3 2 1 0 1 1
0 0 0 0 0 0 0 1 2 3 5 8 11 12 9 5 3 3 7 14 16 13 11 11 10 8 7 6 6 8 8 6 4 4 3 3 3 3 3 3 3 3 3 4 3 1 1 2 2
0 0 0 0 0 0 0 1 2 3 5 8 11 11 7 4 2 2 6 14 17 15 13 12 11 9 8 7 7 9 8 5 4 3 3 3 3 3 3 3 3 3 4 5 4 3 2 3 3
Wind_Speed
7 5 3 1 2 3 2 3 1 2 3 2 4 4 4 3 2 2 0 4 4 4 3 5 7 8 9 9 10 10 10 11 11 11 11 11 11 11 11 10 10 10 10 11 11 10 10 11 10
5 4 1 1 3 2 3 2 2 2 2 2 4 4 4 3 2 4 2 3 5 4 3 4 7 8 8 9 10 10 10 11 10 10 10 10 10 10 10 10 10 9 9 10 10 10 10 10 9
5 3 1 2 2 2 1 0 2 2 1 1 3 4 3 2 2 3 2 6 5 3 2 4 7 7 8 9 10 10 10 10 10 10 9 9 9 9 9 9 9 8 8 8 9 9 8 8 9
3 1 2 3 1 1 2 1 2 2 3 4 3 4 3 2 2 4 6 7 5 3 2 3 6 7 8 10 10 10 10 10 9 9 9 8 8 8 8 8 8 7 7 7 7 7 7 7 8
1 2 3 3 2 1 0 1 2 2 2 3 3 3 3 3 5 7 7 6 5 3 1 1 5 7 9 10 10 10 9 9 8 8 7 7 6 6 7 7 7 6 6 6 7 6 6 6 6
2 3 3 1 2 1 1 1 2 3 2 2 3 3 1 2 5 6 6 5 4 3 2 1 5 7 8 9 9 9 9 8 7 6 6 6 6 5 5 5 5 5 5 5 5 5 6 5 5
2 3 1 1 0 1 1 2 2 3 2 1 3 3 1 1 3 5 5 4 4 3 2 1 2 4 6 7 8 8 7 7 6 5 5 5 4 4 4 4 4 4 5 5 5 5 4 4 4
2 3 1 1 1 1 1 2 2 2 2 2 3 5 4 4 5 6 5 5 4 3 2 1 1 2 2 3 5 6 7 6 6 5 5 4 4 3 3 2 3 3 3 4 4 3 3 3 3
2 3 1 3 3 2 2 2 1 2 3 2 2 3 4 8 9 7 5 3 3 2 1 1 1 1 2 2 3 4 5 5 5 4 4 4 2 2 1 1 2 2 2 3 3 2 2 2 1
3 2 5 4 4 3 1 1 2 3 2 1 3 4 8 10 9 8 6 5 4 3 2 1 1 2 2 2 2 2 2 2 2 2 2 2 2 2 2 2 2 2 2 2 2 2 2 2 1
3 4 3 2 3 3 2 2 2 5 2 4 6 8 10 9 8 8 7 6 6 4 3 2 2 2 2 2 2 2 1 2 2 2 2 2 2 2 2 2 2 2 2 1 1 2 1 1 1
3 4 3 2 2 2 3 2 2 3 4 5 7 9 10 10 9 9 8 7 5 4 3 3 3 3 2 2 2 2 2 1 1 1 1 1 1 1 1 1 2 2 1 1 1 1 1 1 1
2 2 1 2 1 2 2 2 2 1 2 6 7 8 9 10 9 7 6 6 5 5 4 4 4 3 3 2 2 2 2 2 1 1 1 1 1 1 1 1 1 1 1 1 1 1 1 1 1
2 0 1 0 1 1 3 1 2 1 5 7 7 7 8 9 9 6 6 6 6 5 4 4 4 4 3 3 2 2 2 2 1 1 1 1 1 1 1 1 1 1 1 1 1 1 1 0 0
1 3 3 1 0 1 4 2 1 3 6 7 7 7 7 7 7 7 8 7 7 5 5 5 5 4 4 4 3 2 2 2 1 1 1 1 1 1 1 1 0 0 1 1 1 1 1 1 1
3 4 1 2 1 1 4 2 3 5 7 7 6 6 6 6 7 6 6 6 6 5 5 5 5 5 4 3 3 2 2 2 1 1 1 1 1 1 1 1 0 0 1 1 1 1 1 1 1
3 1 2 3 2 2 3 4 3 6 7 7 6 6 7 6 6 5 6 6 6 6 6 5 4 5 4 3 2 2 2 1 1 1 1 1 1 1 1 1 0 1 1 1 0 1 1 1 1
2 2 2 4 2 2 2 4 3 6 7 7 6 6 6 7 7 6 6 6 6 5 5 5 4 4 4 3 2 2 2 1 1 1 1 1 1 1 1 1 1 1 1 1 1 1 1 1 0
2 2 4 5 2 2 4 5 4 5 6 6 5 5 5 6 4 4 5 6 6 5 5 5 5 4 4 3 2 2 1 1 0 0 1 1 1 1 1 1 1 1 1 1 1 1 1 1 1
3 2 3 3 1 2 2 4 3 5 7 7 7 7 7 5 3 4 5 5 6 6 5 5 5 5 5 3 2 2 2 1 1 0 0 0 0 1 1 1 1 1 1 1 1 1 1 1 1
3 4 4 2 2 2 1 4 2 1 3 3 4 5 6 8 7 6 6 6 6 6 6 6 5 5 5 4 3 3 2 1 1 1 1 1 0 1 1 1 1 1 1 1 1 1 2 1 0
4 5 4 2 2 2 1 3 5 2 2 4 5 5 6 6 7 6 6 6 6 6 5 5 5 5 4 4 4 4 3 2 2 1 0 1 1 1 1 1 1 1 1 1 1 1 1 2 1
5 1 2 2 3 1 1 1 7 1 3 7 7 7 8 7 8 8 8 7 6 5 5 4 4 4 4 4 5 4 3 2 1 1 1 0 1 0 0 1 1 1 1 1 1 1 1 1 1
3 5 6 6 5 1 2 2 7 4 6 5 6 7 8 8 8 7 6 5 5 5 5 5 5 4 4 5 5 5 5 4 3 2 1 1 0 0 0 1 1 1 1 1 1 1 1 1 1
4 5 4 5 3 5 2 2 9 6 5 5 6 7 7 8 8 8 7 7 6 7 6 6 6 4 4 5 5 5 5 5 5 4 3 2 1 1 1 1 1 1 1 1 1 1 1 1 1
4 7 7 5 4 4 1 5 8 4 4 3 2 4 5 6 6 7 8 8 8 8 7 6 6 5 4 5 5 4 5 4 3 3 3 3 2 2 1 1 1 1 1 1 1 1 1 1 1
5 3 5 7 2 1 5 6 8 2 1 0 1 3 4 5 6 6 6 6 6 7 7 7 6 5 4 4 4 4 4 4 3 3 3 2 2 2 2 2 2 1 1 1 2 1 1 1 1
4 7 5 6 5 2 4 4 5 4 3 1 1 3 3 4 4 5 5 5 5 6 5 5 5 5 4 3 3 4 4 4 3 3 3 3 2 2 2 2 2 2 1 1 1 1 1 1 0
3 4 5 4 5 5 3 7 5 6 5 4 4 4 5 5 5 5 5 5 5 5 5 5 5 4 4 4 3 3 3 3 3 3 3 2 2 2 2 2 2 2 1 1 1 1 1 1 0
3 5 6 5 3 4 3 8 5 3 3 3 3 3 3 4 4 4 5 5 5 5 5 5 5 5 4 4 3 3 3 3 3 3 2 2 2 2 2 2 2 1 1 1 2 1 1 1 1
Wind_Direction
159 148 149 144 50 44 348 323 9 22 31 34 55 67 87 82 109 147 186 139 133 139 151 154 145 136 133 132 128 123 123 122 124 126 128 132 135 137 138 137 138 138 140 142 142 144 144 143 142
150 159 171 56 71 44 328 330 43 50 141 140 70 65 71 65 69 107 127 139 134 141 148 156 150 146 141 138 131 126 127 127 126 126 128 132 136 136 135 134 136 137 140 144 147 147 146 144 142
164 189 97 65 75 158 240 310 116 98 79 55 62 50 69 90 115 140 155 136 123 134 147 166 154 154 151 145 136 130 130 131 129 128 129 130 134 137 138 137 139 141 144 146 147 149 149 151 151
165 113 55 58 13 246 204 217 132 98 38 43 75 56 48 40 138 137 131 130 126 133 141 171 154 148 147 144 140 136 135 135 134 133 133 133 134 138 142 142 142 143 144 144 146 151 154 157 156
114 81 53 30 329 307 177 151 124 76 51 48 74 81 38 21 94 117 127 131 137 136 134 167 141 142 142 141 139 136 137 137 136 135 134 136 137 141 144 145 147 146 145 145 148 152 157 158 159
57 63 63 15 334 347 87 98 85 79 76 79 87 93 49 68 106 126 131 136 140 137 125 119 135 133 133 137 139 138 137 137 139 136 135 135 137 140 146 149 147 151 151 153 160 159 158 156 159
91 83 105 195 315 337 135 96 99 107 101 102 112 103 99 126 131 130 121 117 118 116 107 83 95 123 137 140 138 138 135 136 137 136 133 134 135 135 136 138 146 154 159 162 164 161 158 163 168
130 95 26 247 177 266 156 107 109 116 118 120 117 140 182 185 135 116 102 93 97 100 99 88 72 88 114 129 139 137 132 132 131 131 130 127 119 116 114 128 149 156 154 156 154 158 156 158 166
121 74 236 221 187 216 150 121 107 83 102 85 89 152 160 136 129 119 106 91 101 120 98 99 92 82 91 112 131 125 126 122 119 119 117 102 74 61 67 110 141 154 152 154 148 147 144 134 129
119 151 231 213 180 175 162 130 151 110 101 89 80 94 122 134 143 144 148 155 163 167 154 126 117 105 94 117 95 81 89 90 86 79 79 71 61 44 51 80 108 103 109 124 128 103 95 105 84
169 203 237 220 180 152 138 126 131 134 184 202 167 151 146 150 156 161 168 171 179 175 163 153 147 121 116 106 101 87 76 74 69 66 72 77 64 43 34 36 42 44 60 54 65 61 62 87 93
187 240 222 213 158 135 152 137 123 179 209 182 163 157 156 162 172 176 177 179 169 162 167 160 150 134 135 127 114 106 101 96 87 72 81 88 78 53 36 36 30 35 41 54 56 61 59 74 84
200 256 216 168 168 155 131 139 144 220 151 132 145 159 170 175 179 181 177 172 165 171 174 165 157 153 152 134 131 124 119 120 125 101 83 111 115 97 57 28 44 43 48 63 67 66 58 65 75
208 172 0 80 122 133 125 116 91 220 146 142 155 174 183 183 178 170 170 174 179 180 175 163 161 160 149 145 140 145 138 129 119 115 124 129 121 112 98 56 43 36 43 70 87 81 62 41 80
85 63 17 354 115 153 112 29 212 183 146 153 171 182 183 185 179 182 185 182 181 180 172 169 169 158 153 153 155 150 145 138 135 141 131 131 133 139 139 115 68 21 47 70 73 60 66 71 77
51 63 18 280 122 134 120 239 239 159 156 169 179 181 183 190 192 191 183 178 174 170 169 177 170 155 154 154 151 144 138 134 140 140 128 134 149 155 141 118 113 76 83 78 90 69 77 61 70
38 74 253 275 206 146 150 239 239 164 169 178 184 187 189 192 198 194 181 175 172 173 169 165 159 152 153 147 134 132 123 126 135 129 131 146 163 159 146 155 158 93 89 74 63 70 97 90 59
235 238 250 251 240 149 206 244 228 174 177 186 188 189 193 198 204 191 179 172 167 165 159 156 151 147 140 129 112 100 90 100 114 136 178 166 169 165 150 142 105 100 91 60 65 77 73 90 55
198 217 254 261 234 174 235 252 233 189 190 191 190 192 199 206 196 174 172 165 159 159 157 159 158 156 145 136 139 138 150 146 133 172 152 148 150 160 148 133 106 108 116 132 121 106 83 65 75
203 234 262 288 301 173 241 272 256 197 200 198 194 196 202 193 173 165 160 161 167 170 167 163 170 167 166 162 150 143 137 141 155 197 64 84 119 158 161 155 152 132 126 97 115 136 124 84 84
239 210 225 233 348 36 57 324 291 227 201 208 206 197 191 190 188 177 171 173 169 172 178 178 179 172 167 155 130 112 84 56 39 13 355 351 73 135 149 149 148 140 145 159 180 165 152 159 67
257 231 204 170 100 306 74 289 285 245 231 220 218 206 197 192 181 175 172 176 180 184 176 171 171 166 162 155 153 153 156 174 203 198 218 346 40 95 131 141 148 140 141 163 205 163 160 155 157
220 154 130 123 130 38 5 183 287 316 247 242 221 211 204 193 181 180 180 181 179 174 169 162 157 163 161 162 166 161 165 177 161 129 119 49 6 21 118 145 140 147 163 178 176 142 147 156 159
150 65 54 51 71 338 244 173 277 236 224 241 222 214 205 191 181 178 169 162 167 166 163 158 156 167 167 167 170 172 174 168 156 162 175 202 258 345 19 143 149 159 158 167 173 151 132 137 143
98 89 35 4 11 254 252 198 250 243 229 222 219 213 199 183 176 169 165 168 176 175 175 170 167 173 174 174 181 185 183 176 179 183 185 184 187 203 233 157 153 156 159 138 121 107 112 130 144
171 142 158 193 222 272 295 237 256 259 248 233 210 186 173 170 172 172 175 178 183 181 178 174 174 179 177 180 187 183 177 177 184 183 178 186 199 204 183 151 141 129 116 112 113 109 107 102 124
138 170 163 132 146 274 278 285 300 320 13 86 118 135 166 169 169 172 172 175 178 178 179 177 174 177 179 178 175 169 169 172 176 173 173 184 193 180 152 145 129 113 107 117 122 116 107 103 111
128 142 105 119 143 243 288 278 262 281 273 251 198 177 183 163 161 167 165 167 179 176 171 165 166 173 173 168 178 175 171 173 169 162 173 183 186 166 148 139 132 124 120 119 114 116 115 108 70
101 94 102 110 146 157 240 269 233 226 221 216 216 199 182 173 168 170 165 166 164 154 159 163 166 163 163 167 164 161 163 164 159 167 184 184 172 161 163 161 146 142 147 137 127 137 133 123 67
145 156 147 148 197 169 177 265 290 233 217 204 204 190 179 172 162 152 148 149 154 158 163 165 166 166 170 164 155 157 156 153 162 177 183 174 166 164 164 158 154 161 152 164 166 187 177 167 173